LA3SP-1 Weather Reports


Display with metric or nautical units.
time (UTC)temp
F
wind
direction
speed
MPH
gust
MPH
rain 1hr
in
rain 24hr
in
rain mn
in
humidity
%
barometer
mb
20260507231927 29 315 0.0 0.0 0.00 0.00 0.00 60 1013.7
20260507230925 29 315 0.0 0.0 0.00 0.00 0.00 59 1013.6
20260507225924 29 315 1.0 0.0 0.00 0.00 0.00 58 1013.6
20260507223921 30 337 0.0 0.0 0.00 0.00 0.00 59 1013.6
20260507221918 30 337 0.0 0.0 0.00 0.00 0.00 61 1013.6
20260507215915 30 337 0.0 0.0 0.00 0.00 0.00 59 1013.5
20260507212912 31 337 0.0 0.0 0.00 0.00 0.00 58 1013.3
20260507211910 31 337 0.0 0.0 0.00 0.00 0.00 57 1013.3
20260507210909 31 337 2.0 0.0 0.00 0.00 0.00 57 1013.4
20260507204906 30 337 2.0 0.0 0.00 0.00 0.00 57 1013.2
20260507201902 31 337 1.0 0.0 0.00 0.00 0.00 54 1013.3
20260507200900 31 337 3.0 0.0 0.00 0.00 0.00 52 1013.3
20260507194857 32 315 0.0 0.0 0.00 0.00 0.00 50 1013.1
20260507193856 32 315 3.0 0.0 0.00 0.00 0.00 49 1013.0
20260507191854 33 292 0.0 0.0 0.00 0.00 0.00 47 1012.8
20260507190852 34 292 2.0 0.0 0.00 0.00 0.00 46 1012.5
20260507185851 35 292 0.0 0.0 0.00 0.00 0.00 45 1012.5
20260507184849 36 292 1.0 0.0 0.00 0.00 0.00 44 1012.3
20260507183848 37 292 0.0 0.0 0.00 0.00 0.00 44 1012.4
20260507182846 37 292 0.0 0.0 0.00 0.00 0.00 42 1012.4
20260507181845 38 292 2.0 0.0 0.00 0.00 0.00 41 1012.3
20260507175842 40 157 0.0 0.0 0.00 0.00 0.00 40 1012.4
20260507174841 41 157 2.0 0.0 0.00 0.00 0.00 40 1012.5
20260507173839 41 157 0.0 0.0 0.00 0.00 0.00 41 1012.5
20260507172838 41 157 0.0 0.0 0.00 0.00 0.00 41 1012.4
20260507171836 41 157 3.0 0.0 0.00 0.00 0.00 40 1012.2
20260507164833 42 157 4.0 0.0 0.00 0.00 0.00 42 1012.2
20260507163831 43 157 4.0 0.0 0.00 0.00 0.00 42 1012.2
20260507162830 43 157 5.0 0.0 0.00 0.00 0.00 41 1012.1
20260507160827 43 180 1.0 0.0 0.00 0.00 0.00 41 1012.1
20260507153823 43 180 1.0 0.0 0.00 0.00 0.00 40 1012.1
20260507152821 44 157 1.0 0.0 0.00 0.00 0.00 39 1012.2
20260507151820 43 157 3.0 0.0 0.00 0.00 0.00 39 1012.1
20260507150818 44 247 1.0 0.0 0.00 0.00 0.00 38 1012.1
20260507145817 45 247 0.0 0.0 0.00 0.00 0.00 39 1011.9
20260507144816 45 247 0.0 0.0 0.00 0.00 0.00 39 1011.9
20260507142813 46 225 0.0 0.0 0.00 0.00 0.00 39 1011.9
20260507135809 45 135 1.0 0.0 0.00 0.00 0.00 42 1011.7
20260507133806 44 315 6.0 0.0 0.00 0.00 0.00 40 1012.0
20260507132805 44 292 2.0 0.0 0.00 0.00 0.00 40 1012.0
20260507130802 47 292 0.0 0.0 0.00 0.00 0.00 39 1012.0
20260507125801 49 225 1.0 0.0 0.00 0.00 0.00 42 1011.9
20260507124759 47 247 0.0 0.0 0.00 0.00 0.00 41 1011.8
20260507123758 46 247 1.0 0.0 0.00 0.00 0.00 41 1011.8
20260507121755 48 270 4.0 0.0 0.00 0.00 0.00 41 1011.9
20260507120754 48 247 0.0 0.0 0.00 0.00 0.00 44 1012.0
20260507114751 45 270 2.0 0.0 0.00 0.00 0.00 45 1012.1
20260507113749 43 270 0.0 0.0 0.00 0.00 0.00 45 1012.0
20260507111747 45 270 2.0 0.0 0.00 0.00 0.00 45 1011.9
20260507110746 44 247 1.0 0.0 0.00 0.00 0.00 45 1011.9
20260507105744 43 270 0.0 0.0 0.00 0.00 0.00 45 1011.8
20260507104743 42 315 0.0 0.0 0.00 0.00 0.00 46 1011.7
20260507103741 42 270 4.0 0.0 0.00 0.00 0.00 46 1011.6
20260507102740 43 292 6.0 0.0 0.00 0.00 0.00 46 1011.5
20260507100737 41 270 1.0 0.0 0.00 0.00 0.00 48 1011.5
20260507095736 41 315 0.0 0.0 0.00 0.00 0.00 48 1011.5
20260507094734 42 270 3.0 0.0 0.00 0.00 0.00 48 1011.3
20260507093733 41 270 0.0 0.0 0.00 0.00 0.00 49 1011.3
20260507091731 41 247 0.0 0.0 0.00 0.00 0.00 51 1011.2
20260507085728 41 247 0.0 0.0 0.00 0.00 0.00 52 1011.1
20260507083725 39 247 0.0 0.0 0.00 0.00 0.00 55 1011.1
20260507082723 38 315 2.0 0.0 0.00 0.00 0.00 55 1010.8
20260507081722 38 292 4.0 0.0 0.00 0.00 0.00 55 1010.8
20260507075719 35 292 3.0 0.0 0.00 0.00 0.00 59 1010.6
20260507074718 33 292 0.0 0.0 0.00 0.00 0.00 60 1010.6
20260507073716 32 292 0.0 0.0 0.00 0.00 0.00 62 1010.5
20260507072715 32 247 1.0 0.0 0.00 0.00 0.00 63 1010.6
20260507071713 31 247 0.0 0.0 0.00 0.00 0.00 65 1010.6
20260507065711 29 292 2.0 0.0 0.00 0.00 0.00 69 1010.3
20260507064710 28 292 0.0 0.0 0.00 0.00 0.00 69 1010.4
20260507062707 26 292 0.0 0.0 0.00 0.00 0.00 71 1010.1
20260507061705 26 292 0.0 0.0 0.00 0.00 0.00 71 1010.0
20260507054701 23 292 0.0 0.0 0.00 0.00 0.00 73 1010.0
20260507053723 22 292 0.0 0.0 0.00 0.00 0.00 74 1010.0
20260507053700 23 292 0.0 0.0 0.00 0.00 0.00 74 1010.0
20260507052700 22 292 0.0 0.0 0.00 0.00 0.00 74 1010.0
20260507041649 21 292 0.0 0.0 0.00 0.00 0.00 73 1009.5
20260507033643 21 292 0.0 0.0 0.00 0.00 0.00 72 1009.5
20260507032642 22 292 0.0 0.0 0.00 0.00 0.00 71 1009.4
20260507030639 22 292 2.0 0.0 0.00 0.00 0.00 72 1009.3
20260507025638 22 270 3.0 0.0 0.00 0.00 0.00 72 1009.2
20260507023635 21 292 2.0 0.0 0.00 0.00 0.00 74 1009.1
20260507022634 21 292 1.0 0.0 0.00 0.00 0.00 73 1009.2
20260507015629 21 315 3.0 0.0 0.00 0.00 0.00 74 1009.0
20260507014628 21 292 2.0 0.0 0.00 0.00 0.00 73 1009.1
20260507012625 22 292 1.0 0.0 0.00 0.00 0.00 72 1009.0
20260507011624 22 292 0.0 0.0 0.00 0.00 0.00 71 1009.0
20260507010622 23 292 3.0 0.0 0.00 0.00 0.00 71 1009.1
20260507004620 24 292 0.0 0.0 0.00 0.00 0.00 70 1009.0
20260507003619 24 292 0.0 0.0 0.00 0.00 0.00 70 1009.0
20260507001616 24 292 2.0 0.0 0.00 0.00 0.00 70 1008.8
20260507000614 24 292 0.0 0.0 0.00 0.00 0.00 70 1008.7